Location: Bun Machan
(52.1403°N, 7.3744°W)
Time: 16:54:12
(UTC+00:00)

COSMOS 2406 - Pass Details

Date: 14 July 2020
Orbit: 844 x 863 km, 71.0° (Epoch: 13 August)

Event Time Altitude Azimuth Distance (km) Brightness Sun altitude
Exits shadow 02:31:40 16° 204° (SSW) 2,090 4.6 -12.0°
Maximum altitude 02:36:19 82° 119° (ESE) 878 3.3 -11.7°
Drops below altitude 10° 02:42:07 10° 32° (NNE) 2,510 7.3 -11.2°
Sets 02:44:35 0° 32° (NNE) 3,449 8.7 -11.0°
